| time (UTC) | temp F | wind direction | speed MPH | gust MPH | rain 1hr in | rain 24hr in | rain mn in | humidity % | barometer mb |
| 20260505014024 | 73 | 0 | 0.0 | 0.0 | 0.00 | 0.00 | 0.00 | 58 | 1002.8 |
| 20260505013522 | 73 | 0 | 0.0 | 0.0 | 0.00 | 0.00 | 0.00 | 57 | 1002.7 |
| 20260505013046 | 73 | 0 | 0.0 | 0.0 | 0.00 | 0.00 | 0.00 | 56 | 1002.7 |
| 20260505012527 | 74 | 0 | 0.0 | 0.0 | 0.00 | 0.00 | 0.00 | 54 | 1002.5 |
| 20260505012023 | 74 | 0 | 0.0 | 0.0 | 0.00 | 0.00 | 0.00 | 55 | 1002.4 |
| 20260505011540 | 75 | 0 | 0.0 | 0.0 | 0.00 | 0.00 | 0.00 | 54 | 1002.2 |
| 20260505011025 | 75 | 0 | 0.0 | 0.0 | 0.00 | 0.00 | 0.00 | 53 | 1002.2 |
| 20260505010522 | 75 | 0 | 0.0 | 0.0 | 0.00 | 0.00 | 0.00 | 52 | 1002.1 |
| 20260505010051 | 76 | 0 | 0.0 | 0.0 | 0.00 | 0.00 | 0.00 | 51 | 1002.1 |
| 20260505005525 | 76 | 0 | 0.0 | 0.0 | 0.00 | 0.00 | 0.00 | 51 | 1002.1 |
| 20260505005023 | 76 | 0 | 0.0 | 0.0 | 0.00 | 0.00 | 0.00 | 50 | 1002.0 |
| 20260505004546 | 77 | 0 | 0.0 | 0.0 | 0.00 | 0.00 | 0.00 | 50 | 1002.1 |
| 20260505004025 | 77 | 0 | 0.0 | 0.0 | 0.00 | 0.00 | 0.00 | 50 | 1002.1 |
| 20260505003523 | 77 | 0 | 0.0 | 0.0 | 0.00 | 0.00 | 0.00 | 48 | 1002.0 |
| 20260505003052 | 78 | 0 | 0.0 | 0.0 | 0.00 | 0.00 | 0.00 | 48 | 1002.0 |
| 20260505002523 | 78 | 0 | 0.0 | 0.0 | 0.00 | 0.00 | 0.00 | 48 | 1002.0 |
| 20260505002023 | 78 | 0 | 0.0 | 0.0 | 0.00 | 0.00 | 0.00 | 47 | 1001.9 |
| 20260505001537 | 79 | 0 | 0.0 | 0.0 | 0.00 | 0.00 | 0.00 | 47 | 1001.9 |
| 20260505001024 | 79 | 0 | 0.0 | 0.0 | 0.00 | 0.00 | 0.00 | 47 | 1001.9 |
| 20260505000523 | 80 | 0 | 0.0 | 0.0 | 0.00 | 0.00 | 0.00 | 46 | 1002.0 |
| 20260505000037 | 80 | 0 | 0.0 | 0.0 | 0.00 | 0.00 | 0.00 | 45 | 1002.0 |
| 20260504235523 | 80 | 0 | 0.0 | 2.0 | 0.00 | 0.00 | 0.00 | 45 | 1002.0 |
| 20260504235023 | 80 | 0 | 0.0 | 2.0 | 0.00 | 0.00 | 0.00 | 46 | 1002.0 |
| 20260504234538 | 80 | 0 | 0.0 | 0.0 | 0.00 | 0.00 | 0.00 | 46 | 1002.0 |
| 20260504234021 | 80 | 0 | 0.0 | 0.0 | 0.00 | 0.00 | 0.00 | 47 | 1002.0 |
| 20260504233524 | 80 | 0 | 0.0 | 0.0 | 0.00 | 0.00 | 0.00 | 46 | 1002.0 |
| 20260504233037 | 80 | 0 | 0.0 | 3.0 | 0.00 | 0.00 | 0.00 | 47 | 1002.0 |
| 20260504232527 | 80 | 0 | 0.0 | 3.0 | 0.00 | 0.00 | 0.00 | 46 | 1002.0 |
| 20260504232021 | 80 | 0 | 0.0 | 3.0 | 0.00 | 0.00 | 0.00 | 45 | 1002.1 |
| 20260504231537 | 80 | 0 | 0.0 | 1.0 | 0.00 | 0.00 | 0.00 | 45 | 1001.9 |
| 20260504231022 | 80 | 158 | 0.0 | 1.0 | 0.00 | 0.00 | 0.00 | 46 | 1002.0 |
| 20260504230524 | 80 | 0 | 0.0 | 8.0 | 0.00 | 0.00 | 0.00 | 44 | 1002.1 |
| 20260504230035 | 80 | 0 | 0.0 | 8.0 | 0.00 | 0.00 | 0.00 | 44 | 1002.1 |
| 20260504225523 | 81 | 0 | 0.0 | 7.0 | 0.00 | 0.00 | 0.00 | 43 | 1002.1 |
| 20260504225021 | 81 | 217 | 0.0 | 7.0 | 0.00 | 0.00 | 0.00 | 43 | 1002.0 |
| 20260504224534 | 82 | 0 | 1.0 | 9.0 | 0.00 | 0.00 | 0.00 | 40 | 1002.1 |
| 20260504224023 | 82 | 19 | 2.0 | 9.0 | 0.00 | 0.00 | 0.00 | 40 | 1002.1 |
| 20260504223523 | 83 | 178 | 1.0 | 6.0 | 0.00 | 0.00 | 0.00 | 41 | 1002.0 |
| 20260504223055 | 83 | 0 | 0.0 | 5.0 | 0.00 | 0.00 | 0.00 | 41 | 1002.0 |
| 20260504222523 | 83 | 328 | 1.0 | 5.0 | 0.00 | 0.00 | 0.00 | 40 | 1002.1 |
| 20260504222023 | 82 | 0 | 0.0 | 5.0 | 0.00 | 0.00 | 0.00 | 39 | 1002.1 |
| 20260504221537 | 82 | 0 | 1.0 | 5.0 | 0.00 | 0.00 | 0.00 | 38 | 1002.2 |
| 20260504221024 | 82 | 0 | 1.0 | 7.0 | 0.00 | 0.00 | 0.00 | 37 | 1002.2 |
| 20260504220521 | 83 | 0 | 1.0 | 7.0 | 0.00 | 0.00 | 0.00 | 36 | 1002.1 |
| 20260504220036 | 83 | 225 | 1.0 | 6.0 | 0.00 | 0.00 | 0.00 | 40 | 1002.2 |
| 20260504215522 | 83 | 0 | 1.0 | 5.0 | 0.00 | 0.00 | 0.00 | 40 | 1002.2 |
| 20260504215026 | 82 | 40 | 2.0 | 10.0 | 0.00 | 0.00 | 0.00 | 41 | 1002.3 |
| 20260504214537 | 82 | 292 | 1.0 | 10.0 | 0.00 | 0.00 | 0.00 | 41 | 1002.3 |
| 20260504214027 | 82 | 190 | 3.0 | 8.0 | 0.00 | 0.00 | 0.00 | 41 | 1002.3 |
| 20260504213523 | 82 | 342 | 2.0 | 15.0 | 0.00 | 0.00 | 0.00 | 41 | 1002.4 |
| 20260504213036 | 81 | 308 | 2.0 | 15.0 | 0.00 | 0.00 | 0.00 | 41 | 1002.4 |
| 20260504212523 | 81 | 180 | 1.0 | 8.0 | 0.00 | 0.00 | 0.00 | 41 | 1002.5 |
| 20260504212024 | 81 | 289 | 1.0 | 7.0 | 0.00 | 0.00 | 0.00 | 42 | 1002.7 |
| 20260504211551 | 81 | 0 | 0.0 | 9.0 | 0.00 | 0.00 | 0.00 | 43 | 1002.7 |
| 20260504211023 | 81 | 186 | 3.0 | 9.0 | 0.00 | 0.00 | 0.00 | 41 | 1002.8 |
| 20260504210524 | 82 | 289 | 0.0 | 8.0 | 0.00 | 0.00 | 0.00 | 41 | 1002.8 |
| 20260504210043 | 81 | 267 | 1.0 | 8.0 | 0.00 | 0.00 | 0.00 | 41 | 1002.7 |
| 20260504205523 | 82 | 5 | 1.0 | 8.0 | 0.00 | 0.00 | 0.00 | 41 | 1002.8 |
| 20260504205023 | 82 | 81 | 2.0 | 8.0 | 0.00 | 0.00 | 0.00 | 41 | 1002.7 |
| 20260504204535 | 82 | 261 | 0.0 | 7.0 | 0.00 | 0.00 | 0.00 | 42 | 1002.7 |
| 20260504204023 | 82 | 317 | 0.0 | 8.0 | 0.00 | 0.00 | 0.00 | 40 | 1002.8 |
| 20260504203522 | 82 | 159 | 1.0 | 8.0 | 0.00 | 0.00 | 0.00 | 41 | 1002.8 |
| 20260504203037 | 82 | 10 | 1.0 | 8.0 | 0.00 | 0.00 | 0.00 | 41 | 1002.8 |
| 20260504202523 | 82 | 121 | 1.0 | 6.0 | 0.00 | 0.00 | 0.00 | 40 | 1002.9 |
| 20260504202024 | 82 | 300 | 1.0 | 7.0 | 0.00 | 0.00 | 0.00 | 40 | 1002.9 |
| 20260504201534 | 83 | 91 | 2.0 | 7.0 | 0.00 | 0.00 | 0.00 | 38 | 1003.0 |
| 20260504201024 | 83 | 186 | 1.0 | 7.0 | 0.00 | 0.00 | 0.00 | 39 | 1003.1 |
| 20260504200523 | 83 | 0 | 1.0 | 11.0 | 0.00 | 0.00 | 0.00 | 38 | 1003.0 |
| 20260504200036 | 83 | 348 | 1.0 | 11.0 | 0.00 | 0.00 | 0.00 | 38 | 1003.1 |
| 20260504195522 | 83 | 167 | 3.0 | 10.0 | 0.00 | 0.00 | 0.00 | 36 | 1003.0 |
| 20260504195023 | 83 | 0 | 2.0 | 7.0 | 0.00 | 0.00 | 0.00 | 36 | 1003.1 |
| 20260504194542 | 83 | 298 | 1.0 | 6.0 | 0.00 | 0.00 | 0.00 | 36 | 1003.1 |
| 20260504194024 | 83 | 275 | 1.0 | 10.0 | 0.00 | 0.00 | 0.00 | 36 | 1003.2 |
| 20260504193524 | 82 | 270 | 2.0 | 10.0 | 0.00 | 0.00 | 0.00 | 37 | 1003.2 |
| 20260504193038 | 82 | 158 | 1.0 | 8.0 | 0.00 | 0.00 | 0.00 | 37 | 1003.1 |
| 20260504192522 | 82 | 320 | 3.0 | 8.0 | 0.00 | 0.00 | 0.00 | 39 | 1003.2 |
| 20260504192021 | 82 | 209 | 1.0 | 7.0 | 0.00 | 0.00 | 0.00 | 39 | 1003.2 |
| 20260504191537 | 82 | 282 | 1.0 | 6.0 | 0.00 | 0.00 | 0.00 | 39 | 1003.2 |
| 20260504191025 | 82 | 94 | 1.0 | 9.0 | 0.00 | 0.00 | 0.00 | 41 | 1003.3 |
| 20260504190523 | 81 | 292 | 1.0 | 10.0 | 0.00 | 0.00 | 0.00 | 41 | 1003.3 |
| 20260504190038 | 81 | 309 | 4.0 | 10.0 | 0.00 | 0.00 | 0.00 | 42 | 1003.3 |
| 20260504185524 | 81 | 146 | 3.0 | 9.0 | 0.00 | 0.00 | 0.00 | 42 | 1003.3 |
| 20260504185024 | 81 | 284 | 2.0 | 9.0 | 0.00 | 0.00 | 0.00 | 42 | 1003.2 |
| 20260504184548 | 81 | 188 | 2.0 | 8.0 | 0.00 | 0.00 | 0.00 | 42 | 1003.3 |
| 20260504184026 | 81 | 0 | 1.0 | 8.0 | 0.00 | 0.00 | 0.00 | 42 | 1003.3 |
| 20260504183524 | 80 | 348 | 3.0 | 10.0 | 0.00 | 0.00 | 0.00 | 43 | 1003.3 |
| 20260504183036 | 80 | 0 | 2.0 | 14.0 | 0.00 | 0.00 | 0.00 | 40 | 1003.3 |
| 20260504182523 | 79 | 99 | 5.0 | 14.0 | 0.00 | 0.00 | 0.00 | 41 | 1003.4 |
| 20260504182027 | 80 | 140 | 3.0 | 13.0 | 0.00 | 0.00 | 0.00 | 41 | 1003.4 |
| 20260504181536 | 80 | 0 | 1.0 | 13.0 | 0.00 | 0.00 | 0.00 | 43 | 1003.4 |
| 20260504181026 | 79 | 232 | 2.0 | 13.0 | 0.00 | 0.00 | 0.00 | 42 | 1003.4 |
| 20260504180526 | 79 | 146 | 2.0 | 10.0 | 0.00 | 0.00 | 0.00 | 45 | 1003.4 |
| 20260504180035 | 78 | 243 | 2.0 | 10.0 | 0.00 | 0.00 | 0.00 | 44 | 1003.5 |
| 20260504175524 | 79 | 292 | 2.0 | 9.0 | 0.00 | 0.00 | 0.00 | 43 | 1003.5 |
| 20260504175029 | 79 | 290 | 1.0 | 7.0 | 0.00 | 0.00 | 0.00 | 44 | 1003.6 |
| 20260504174540 | 79 | 328 | 2.0 | 7.0 | 0.00 | 0.00 | 0.00 | 44 | 1003.6 |
| 20260504174024 | 79 | 0 | 1.0 | 9.0 | 0.00 | 0.00 | 0.00 | 43 | 1003.6 |
| 20260504173526 | 78 | 0 | 2.0 | 9.0 | 0.00 | 0.00 | 0.00 | 45 | 1003.6 |
| 20260504173037 | 78 | 207 | 2.0 | 9.0 | 0.00 | 0.00 | 0.00 | 44 | 1003.6 |
| 20260504172525 | 78 | 346 | 2.0 | 9.0 | 0.00 | 0.00 | 0.00 | 45 | 1003.6 |
| 20260504172025 | 78 | 140 | 2.0 | 8.0 | 0.00 | 0.00 | 0.00 | 44 | 1003.7 |
| 20260504171537 | 77 | 120 | 2.0 | 10.0 | 0.00 | 0.00 | 0.00 | 45 | 1003.7 |
| 20260504171025 | 77 | 0 | 3.0 | 10.0 | 0.00 | 0.00 | 0.00 | 47 | 1003.9 |
| 20260504170524 | 77 | 123 | 1.0 | 12.0 | 0.00 | 0.00 | 0.00 | 46 | 1003.8 |
| 20260504151025 | 71 | 284 | 1.0 | 7.0 | 0.00 | 0.00 | 0.00 | 56 | 1004.0 |
| 20260504150526 | 71 | 182 | 0.0 | 12.0 | 0.00 | 0.00 | 0.00 | 55 | 1003.9 |
| 20260504141024 | 66 | 0 | 2.0 | 10.0 | 0.00 | 0.00 | 0.00 | 61 | 1004.1 |
| 20260504140525 | 66 | 0 | 2.0 | 11.0 | 0.00 | 0.00 | 0.00 | 62 | 1004.0 |
| 20260504130523 | 61 | 175 | 1.0 | 8.0 | 0.00 | 0.00 | 0.00 | 67 | 1003.9 |
| 20260504110524 | 60 | 0 | 0.0 | 0.0 | 0.00 | 0.00 | 0.00 | 67 | 1004.0 |
| 20260504100523 | 63 | 0 | 0.0 | 2.0 | 0.00 | 0.00 | 0.00 | 59 | 1004.6 |
| 20260504081539 | 66 | 0 | 1.0 | 8.0 | 0.00 | 0.00 | 0.00 | 53 | 1004.8 |
| 20260504081026 | 66 | 0 | 1.0 | 8.0 | 0.00 | 0.00 | 0.00 | 53 | 1005.0 |
| 20260504080524 | 66 | 0 | 1.0 | 11.0 | 0.00 | 0.00 | 0.00 | 53 | 1005.1 |
| 20260504050525 | 65 | 0 | 0.0 | 0.0 | 0.00 | 0.00 | 0.00 | 57 | 1007.4 |
| 20260504045524 | 65 | 0 | 0.0 | 0.0 | 0.00 | 0.00 | 0.00 | 56 | 1007.4 |
| 20260504045024 | 66 | 0 | 0.0 | 0.0 | 0.00 | 0.00 | 0.00 | 54 | 1007.5 |
| 20260504044537 | 66 | 0 | 0.0 | 0.0 | 0.00 | 0.00 | 0.00 | 55 | 1007.6 |
| 20260504044024 | 66 | 0 | 0.0 | 0.0 | 0.00 | 0.00 | 0.00 | 54 | 1007.7 |
| 20260504043525 | 67 | 0 | 0.0 | 0.0 | 0.00 | 0.00 | 0.00 | 53 | 1007.8 |
| 20260504043042 | 67 | 0 | 0.0 | 0.0 | 0.00 | 0.00 | 0.00 | 52 | 1007.9 |
| 20260504042524 | 68 | 0 | 0.0 | 0.0 | 0.00 | 0.00 | 0.00 | 50 | 1007.9 |
| 20260504042024 | 68 | 0 | 0.0 | 0.0 | 0.00 | 0.00 | 0.00 | 50 | 1007.8 |
| 20260504041537 | 68 | 0 | 0.0 | 0.0 | 0.00 | 0.00 | 0.00 | 50 | 1007.9 |
| 20260504041024 | 68 | 0 | 0.0 | 0.0 | 0.00 | 0.00 | 0.00 | 50 | 1007.8 |
| 20260504040525 | 67 | 0 | 0.0 | 0.0 | 0.00 | 0.00 | 0.00 | 51 | 1007.8 |
| 20260504040042 | 67 | 0 | 0.0 | 0.0 | 0.00 | 0.00 | 0.00 | 51 | 1007.8 |
| 20260504035525 | 67 | 0 | 0.0 | 0.0 | 0.00 | 0.00 | 0.00 | 54 | 1007.8 |
| 20260504035024 | 67 | 0 | 0.0 | 0.0 | 0.00 | 0.00 | 0.00 | 52 | 1007.8 |
| 20260504034537 | 68 | 0 | 0.0 | 0.0 | 0.00 | 0.00 | 0.00 | 52 | 1007.8 |
| 20260504034030 | 68 | 0 | 0.0 | 0.0 | 0.00 | 0.00 | 0.00 | 50 | 1007.7 |
| 20260504033524 | 68 | 0 | 0.0 | 0.0 | 0.00 | 0.00 | 0.00 | 51 | 1007.8 |
| 20260504033036 | 69 | 0 | 0.0 | 0.0 | 0.00 | 0.00 | 0.00 | 50 | 1007.8 |
| 20260504032523 | 69 | 0 | 0.0 | 0.0 | 0.00 | 0.00 | 0.00 | 49 | 1007.9 |
| 20260504032024 | 69 | 0 | 0.0 | 0.0 | 0.00 | 0.00 | 0.00 | 50 | 1007.9 |
| 20260504031554 | 69 | 0 | 0.0 | 1.0 | 0.00 | 0.00 | 0.00 | 51 | 1007.8 |
| 20260504031023 | 69 | 0 | 0.0 | 9.0 | 0.00 | 0.00 | 0.00 | 50 | 1007.7 |
| 20260504030523 | 69 | 0 | 2.0 | 9.0 | 0.00 | 0.00 | 0.00 | 51 | 1007.9 |
| 20260504030043 | 69 | 0 | 0.0 | 2.0 | 0.00 | 0.00 | 0.00 | 51 | 1008.0 |
| 20260504025522 | 69 | 0 | 0.0 | 2.0 | 0.00 | 0.00 | 0.00 | 51 | 1007.9 |
| 20260504025023 | 68 | 0 | 0.0 | 0.0 | 0.00 | 0.00 | 0.00 | 51 | 1007.8 |
| 20260504024538 | 68 | 0 | 0.0 | 0.0 | 0.00 | 0.00 | 0.00 | 52 | 1007.8 |
| 20260504024023 | 69 | 0 | 0.0 | 0.0 | 0.00 | 0.00 | 0.00 | 52 | 1007.7 |
| 20260504023522 | 69 | 0 | 0.0 | 0.0 | 0.00 | 0.00 | 0.00 | 51 | 1007.7 |
| 20260504023038 | 69 | 0 | 0.0 | 0.0 | 0.00 | 0.00 | 0.00 | 51 | 1007.8 |
| 20260504022524 | 69 | 0 | 0.0 | 0.0 | 0.00 | 0.00 | 0.00 | 50 | 1007.8 |
| 20260504022022 | 70 | 0 | 0.0 | 0.0 | 0.00 | 0.00 | 0.00 | 52 | 1007.8 |
| 20260504021539 | 70 | 0 | 0.0 | 0.0 | 0.00 | 0.00 | 0.00 | 50 | 1007.8 |
| 20260504021020 | 70 | 0 | 0.0 | 0.0 | 0.00 | 0.00 | 0.00 | 50 | 1007.7 |
| 20260504020523 | 71 | 0 | 0.0 | 0.0 | 0.00 | 0.00 | 0.00 | 49 | 1007.8 |
| 20260504020040 | 71 | 0 | 0.0 | 0.0 | 0.00 | 0.00 | 0.00 | 50 | 1007.8 |
| 20260504015524 | 71 | 0 | 0.0 | 2.0 | 0.00 | 0.00 | 0.00 | 50 | 1007.8 |
| 20260504015025 | 71 | 0 | 0.0 | 2.0 | 0.00 | 0.00 | 0.00 | 50 | 1007.8 |
| 20260504014543 | 71 | 0 | 0.0 | 1.0 | 0.00 | 0.00 | 0.00 | 49 | 1007.8 |